Weather Roundup
Issued by NWS Springfield, MO

Home | Current Version | Previous Version | Text Only | Print | Product List | Glossary On
Versions: 1 2 3 4 5 6 7 8 9 10 11 12 13 14 15 16 17 18 19 20 21 22 23 24 25 26 27 28 29 30 31 32 33 34 35 36 37 38 39 40 41 42 43 44 45 46 47 48 49 50
763
NZUS99 KSGF 251457
HRRSGF

HOURLY WEATHER
NATIONAL WEATHER SERVICE SPRINGFIELD MO
1000 AM CDT SUN SEP 25 2016

......SGF CWA......

CITY           SKY/WX    TMP DP  RH WIND       PRES   REMARKS
SPRINGFIELD    SUNNY     79  67  66 S8        30.10R
JOPLIN         PTSUNNY   74  67  78 NW12      30.12R
WEST PLAINS    SUNNY     81  68  64 W6        30.13S
BRANSON        PTSUNNY   79  68  69 CALM      30.12S

......SURROUNDING SGF CWA......

CITY           SKY/WX    TMP DP  RH WIND       PRES   REMARKS
CHANUTE        LGT RAIN  70  68  93 N3        30.11R
PARSONS        HVY RAIN  70  68  93 N7        30.12R FOG
COFFEYVILLE    LGT RAIN  71  68  90 N9        30.10S
EMPORIA        LGT RAIN  59  55  87 NW12      30.17R
HARRISON AR    SUNNY     78  69  73 E3        30.12R

......KANSAS AND MISSOURI......

CITY           SKY/WX    TMP DP  RH WIND       PRES   REMARKS
KANSAS CTY INT DRIZZLE   68  65  90 W13       30.12R FOG
SEDALIA        CLOUDY    77  66  68 W10       30.11R
ST JOSEPH      LGT RAIN  61  55  81 NW13      30.14R
ST LOUIS       CLOUDY    84  67  56 SW7       30.06S
WICHITA        DRIZZLE   60  53  77 N14       30.19R
TOPEKA         LGT RAIN  59  55  87 N14G24    30.14R
OLATHE         LGT RAIN  67  66  97 SW5       30.12R

......TENNESSEE......

CITY           SKY/WX    TMP DP  RH WIND       PRES   REMARKS
MEMPHIS        NOT AVBL
NASHVILLE      SUNNY     81  67  62 CALM      30.10S

......ARKANSAS.......

CITY           SKY/WX    TMP DP  RH WIND       PRES   REMARKS
FAYETTEVILLE   MOSUNNY   77  71  82 S3        30.11S
FT SMITH       CLOUDY    78  69  73 NE3       30.06F
LITTLE ROCK    PTSUNNY   86  71  60 CALM      30.06S HX  91

......OKLAHOMA.......

CITY           SKY/WX    TMP DP  RH WIND       PRES   REMARKS
TULSA          CLOUDY    74  68  81 N9        30.06S
PONCA CITY     CLOUDY    71  67  87 N8        30.11R
MCALESTER      CLOUDY    79  67  66 E6        30.07F
OKLAHOMA CITY  CLOUDY    72  67  84 NW6       30.10R

......IOWA............

CITY           SKY/WX    TMP DP  RH WIND       PRES   REMARKS
DES MOINES     NOT AVBL
QUAD CITIES    SUNNY     78  68  71 SW10      30.00R

......ILLINOIS........

CITY           SKY/WX    TMP DP  RH WIND       PRES   REMARKS
QUINCY         NOT AVBL
CHICAGO        PTSUNNY   70  61  73 S8        30.07F




USA.gov is the U.S. government's official web portal to all federal, state and local government web resources and services.